This is the latest recevied weather packets stored in our database for station/object WB3EGK. If no packets are shown the sender has not sent any weather packets the latest 10 day(s).
| Time | Temp. | Humidity | Pressure | Rain* | Wind** | Luminosity | Snow |
|---|---|---|---|---|---|---|---|
| 1777832552 | 13.33° C | 1% | 1011.3 hPa | 0 mm | - | 508 W/m² | - |
| 1777832248 | 13.33° C | 1% | 1011.4 hPa | 0 mm | - | 866 W/m² | - |
| 1777831945 | 13.33° C | 1% | 1011.4 hPa | 0 mm | - | 367 W/m² | - |
| 1777831641 | 13.33° C | 1% | 1011.7 hPa | 0 mm | - | 858 W/m² | - |
| 1777831340 | 12.78° C | 1% | 1011.6 hPa | 0 mm | - | 547 W/m² | - |
| 1777831036 | 12.78° C | 1% | 1011.7 hPa | 0 mm | - | 303 W/m² | - |
| 1777830734 | 13.33° C | 1% | 1011.6 hPa | 0 mm | - | 835 W/m² | - |
| 1777830429 | 13.33° C | 1% | 1012 hPa | 0 mm | - | 943 W/m² | - |
| 1777830127 | 12.78° C | 1% | 1011.9 hPa | 0 mm | - | 473 W/m² | - |
| 1777829822 | 12.78° C | 1% | 1011.6 hPa | 0 mm | - | 864 W/m² | - |
| 1777829519 | 12.78° C | 1% | 1012 hPa | 0 mm | - | 849 W/m² | - |
| 1777829215 | 12.22° C | 1% | 1012.2 hPa | 0 mm | - | 801 W/m² | - |
| 1777828913 | 12.22° C | 1% | 1012 hPa | 0 mm | - | 219 W/m² | - |
| 1777828609 | 12.78° C | 1% | 1012.1 hPa | 0 mm | - | 325 W/m² | - |
| 1777828307 | 12.22° C | 1% | 1012.2 hPa | 0 mm | - | 874 W/m² | - |
| 1777828003 | 12.22° C | 1% | 1012.3 hPa | 0 mm | - | 539 W/m² | - |
| 1777827700 | 12.22° C | 1% | 1012.1 hPa | 0 mm | - | 436 W/m² | - |
| 1777827397 | 12.22° C | 1% | 1012.4 hPa | 0 mm | - | 752 W/m² | - |
| 1777827093 | 12.22° C | 1% | 1012.3 hPa | 0 mm | - | 801 W/m² | - |
| 1777826790 | 12.22° C | 1% | 1012.4 hPa | 0 mm | - | 622 W/m² | - |
| 1777826487 | 12.22° C | 1% | 1012.3 hPa | 0 mm | - | 818 W/m² | - |
| 1777826184 | 11.67° C | 1% | 1012.5 hPa | 0 mm | - | 798 W/m² | - |
| 1777825882 | 11.67° C | 1% | 1012.4 hPa | 0 mm | - | 774 W/m² | - |
| 1777825578 | 11.67° C | 1% | 1012.6 hPa | 0 mm | - | 757 W/m² | - |
| 1777825276 | 11.67° C | 1% | 1012.7 hPa | 0 mm | - | 842 W/m² | - |
* Rain latest hour (hover to see other rain measurements)
** Current wind speed in m/s (hover to see current wind gust speed)